Weather History for Charlottetown, PE

Change the Weather History Date:

Sunday, June 23, 2013

  Actual Average Record
Temperature  
Mean Temperature 69 °F -  
Max Temperature 80 °F 72 °F 80 °F (2013)
Min Temperature 58 °F 54 °F 41 °F (2011)
Cooling Degree Days 4    
Growing Degree Days 19 (Base 50)    
Moisture  
Dew Point 60 °F    
Average Humidity 78    
Maximum Humidity 94    
Minimum Humidity 39    
Precipitation  
Precipitation 0.31 in 0.11 in - ()
Sea Level Pressure  
Sea Level Pressure 30.05 in    
Wind  
Wind Speed 8 mph ()    
Max Wind Speed 15 mph    
Max Gust Speed 23 mph    
Visibility 12.5 miles    
Events Rain    
Averages and records for this station are not official NWS values.
T = Trace of Precipitation, MM = Missing Value Source: Averaged Metar Reports

Daily Weather History Graph

Daily Weather History Graph

Search for Another Location

Airport:

Trip Planner

Search our weather history database for the weather conditions in past years. The results will help you decide how hot, cold, wet, or windy it might be!

Date:

Astronomy

Jun. 23, 2013 Rise Set
Actual Time 5:21 AM ADT 9:08 PM ADT
Civil Twilight 4:42 AM ADT 9:47 PM ADT
Nautical Twilight 3:49 AM ADT 10:40 PM ADT
Astronomical Twilight 2:34 AM ADT 11:55 PM ADT
Moon 9:11 PM ADT (6/23) 5:37 AM ADT (6/23)
Length of Visible Light 17h 05m
Length of Day
15h 47m
Full, 100% of the Moon is Illuminated
Jun 23
Full
Jun 30
Last Quarter
Jul 8
New
Jul 16
First Quarter
Jul 22
Full

Hourly Weather History & Observations

Time (ADT) Temp. Heat Index Dew Point Humidity Pressure Visibility Wind Dir Wind Speed Gust Speed Precip Events Conditions
12:00 AM 62.6 °F - 55.4 °F 77% 30.07 in 15.0 mi WSW 9.2 mph - N/A   Clear
1:00 AM 60.8 °F - 55.4 °F 82% 30.07 in 15.0 mi WSW 9.2 mph - N/A   Clear
2:00 AM 59.0 °F - 55.4 °F 88% 30.07 in 15.0 mi WSW 12.7 mph - N/A   Clear
3:00 AM 59 °F - 56 °F 85% 30.07 in 15 mi WSW 11.5 mph - -   Scattered Clouds
3:00 AM 59.0 °F - 55.4 °F 88% 30.07 in 15.0 mi WSW 11.5 mph - N/A   Partly Cloudy
4:00 AM 59.0 °F - 55.4 °F 88% 30.07 in 15.0 mi WSW 12.7 mph - N/A   Partly Cloudy
5:00 AM 59.0 °F - 55.4 °F 88% 30.07 in 15.0 mi WSW 11.5 mph - N/A   Partly Cloudy
6:00 AM 59.0 °F - 55.4 °F 88% 30.08 in 15.0 mi WSW 11.5 mph - N/A   Scattered Clouds
7:00 AM 60.8 °F - 57.2 °F 88% 30.09 in 15.0 mi WSW 13.8 mph - N/A   Scattered Clouds
8:00 AM 64.4 °F - 59.0 °F 83% 30.11 in 15.0 mi WSW 9.2 mph - N/A   Mostly Cloudy
9:00 AM 68 °F - 59 °F 67% 30.11 in 15 mi WSW 8.1 mph - -   Clear
9:00 AM 68.0 °F - 59.0 °F 73% 30.11 in 15.0 mi WSW 8.1 mph - N/A   Mostly Cloudy
10:00 AM 69.8 °F - 62.6 °F 78% 30.12 in 15.0 mi SW 5.8 mph - N/A   Mostly Cloudy
11:00 AM 71.6 °F - 62.6 °F 73% 30.12 in 15.0 mi SSW 6.9 mph - N/A   Mostly Cloudy
12:00 PM 73.4 °F - 60.8 °F 65% 30.12 in 15.0 mi SW 6.9 mph - N/A   Mostly Cloudy
1:00 PM 75.2 °F - 60.8 °F 61% 30.10 in 15.0 mi SSW 8.1 mph - N/A   Mostly Cloudy
2:00 PM 77.0 °F - 64.4 °F 65% 30.09 in 15.0 mi SW 5.8 mph - N/A   Overcast
3:00 PM 79 °F - 58 °F 39% 30.08 in 15 mi WSW 9.2 mph - -   Overcast
3:00 PM 78.8 °F - 59.0 °F 51% 30.08 in 15.0 mi West 10.4 mph - N/A   Overcast
4:00 PM 80.6 °F 80.5 °F 55.4 °F 42% 30.05 in 15.0 mi WSW 6.9 mph - N/A   Overcast
5:00 PM 78.8 °F - 53.6 °F 42% 30.03 in 15.0 mi WSW 8.1 mph - N/A   Overcast
6:00 PM 75.2 °F - 60.8 °F 61% 30.01 in 15.0 mi South 11.5 mph - N/A   Overcast
7:00 PM 71.6 °F - 60.8 °F 69% 30.02 in 15.0 mi WSW 10.4 mph - N/A   Overcast
8:00 PM 69.8 °F - 60.8 °F 73% 30.02 in 15.0 mi SW 13.8 mph 20.7 mph N/A   Mostly Cloudy
8:21 PM 68.0 °F - 60.8 °F 78% 30.01 in 15.0 mi SW 12.7 mph 23.0 mph N/A Rain Light Rain Showers
8:46 PM 66.2 °F - 60.8 °F 83% 30.01 in 3.0 mi SW 15.0 mph 20.7 mph N/A Rain Light Rain Showers
9:00 PM 65 °F - 62 °F 87% 30.01 in 10 mi SW 11.5 mph - - Rain Light Rain Showers
9:00 PM 64.4 °F - 62.6 °F 94% 30.01 in 10.0 mi SW 9.2 mph 21.9 mph N/A Rain Light Rain Showers
9:48 PM 64.4 °F - 62.6 °F 94% 30.00 in 6.0 mi SSW 8.1 mph - N/A   Overcast
10:00 PM 64.4 °F - 62.6 °F 94% 30.00 in 8.0 mi SW 3.5 mph - N/A Rain Light Rain Showers
10:17 PM 64.4 °F - 62.6 °F 94% 30.00 in 8.0 mi SW 3.5 mph - N/A Rain Rain Showers
10:31 PM 64.4 °F - 62.6 °F 94% 30.00 in 8.0 mi Variable 2.3 mph - N/A Rain Light Rain Showers
10:52 PM 64.4 °F - 62.6 °F 94% 29.99 in 8.0 mi WSW 3.5 mph - N/A Rain Light Rain Showers
11:00 PM 64.4 °F - 62.6 °F 94% 29.99 in 7.0 mi Variable 2.3 mph - N/A Rain Heavy Rain Showers
11:23 PM 64.4 °F - 62.6 °F 94% 29.98 in 4.0 mi South 3.5 mph - N/A Rain Rain Showers
11:43 PM 64.4 °F - 62.6 °F 94% 29.97 in 3.0 mi South 6.9 mph - N/A Rain Light Rain Showers